Location: Bottenau
(48.5138°N, 8.0462°E)
Time: 19:25:00
(UTC+00:00)

ATLAS 3B R/B - Pass Details

Date: 27 July 2021
Orbit: 1001 x 1194 km, 63.8° (Epoch: 09 September)

Event Time Altitude Azimuth Distance (km) Brightness Sun altitude
Rises 20:24:48 0° 318° (NW) 3,900 7.9 -10.4°
Reaches altitude 10° 20:27:25 10° 317° (NW) 2,967 6.7 -10.7°
Maximum altitude 20:34:29 75° 234° (SW) 1,179 2.9 -11.5°
Enters shadow 20:40:51 15° 151° (SSE) 2,735 4.2 -12.2°
